Weather History for New York, NY

Change the Weather History Date:

Friday, January 31, 2014

  Actual Average Record
Temperature  
Mean Temperature 33 °F 33 °F  
Max Temperature 39 °F 40 °F 61 °F (1974)
Min Temperature 26 °F 27 °F 2 °F (1948)
Degree Days  
Heating Degree Days 32 32  
Month to date heating degree days 1116 988  
Since 1 July heating degree days 2723 2599  
Cooling Degree Days 0 0  
Month to date cooling degree days 0 0  
Year to date cooling degree days 0 0  
Moisture  
Dew Point 10 °F    
Average Humidity 39    
Maximum Humidity 46    
Minimum Humidity 32    
Precipitation  
Precipitation 0.00 in 0.10 in 0.88 in (2013)
Month to date precipitation 2.36 3.17  
Year to date precipitation 2.36 3.17  
Snow  
Snow 0.00 in 0.30 in 4.70 in (1949)
Month to date snowfall 16.7 7.4  
Since 1 July snowfall 24.5 12.9  
Snow Depth 0.00 in    
Sea Level Pressure  
Sea Level Pressure 30.16 in    
Wind  
Wind Speed 6 mph (West)    
Max Wind Speed 16 mph    
Max Gust Speed 21 mph    
Visibility 10 miles    
Events      
T = Trace of Precipitation, MM = Missing Value Source: NWS Daily Summary

Daily Weather History Graph

Daily Weather History Graph

Search for Another Location

Airport:

Trip Planner

Search our weather history database for the weather conditions in past years. The results will help you decide how hot, cold, wet, or windy it might be!

Date:

Astronomy

Jan. 31, 2014 Rise Set
Actual Time 7:06 AM EST 5:11 PM EST
Civil Twilight 6:37 AM EST 5:40 PM EST
Nautical Twilight 6:04 AM EST 6:13 PM EST
Astronomical Twilight 5:32 AM EST 6:45 PM EST
Moon 7:13 AM EST (1/31) 6:33 PM EST (1/31)
Length of Visible Light 11h 03m
Length of Day
10h 05m
New Moon, 1% of the Moon is Illuminated
Jan 31
New Moon
Feb 6
First Quarter
Feb 14
Full
Feb 22
Last Quarter
Mar 1
New

Hourly Weather History & Observations

Time (EST) Temp. Windchill Dew Point Humidity Pressure Visibility Wind Dir Wind Speed Gust Speed Precip Events Conditions
12:21 AM 26.6 °F 19.1 °F 5.0 °F 40% 30.20 in 10.0 mi SW 6.9 mph - N/A   Overcast
12:51 AM 26.1 °F 17.6 °F 7.0 °F 44% 30.20 in 10.0 mi SW 8.1 mph - N/A   Overcast
1:11 AM 26.6 °F 16.8 °F 10.4 °F 51% 30.17 in 10.0 mi SW 10.4 mph - N/A   Overcast
1:51 AM 26.1 °F 17.6 °F 8.1 °F 47% 30.15 in 10.0 mi SW 8.1 mph - N/A   Overcast
2:51 AM 26.1 °F 18.4 °F 9.0 °F 49% 30.15 in 10.0 mi WSW 6.9 mph - N/A   Overcast
3:51 AM 28.0 °F 18.6 °F 8.1 °F 43% 30.13 in 10.0 mi WSW 10.4 mph - N/A   Overcast
4:51 AM 28.9 °F 19.2 °F 7.0 °F 40% 30.13 in 10.0 mi SW 11.5 mph - N/A   Overcast
5:51 AM 28.9 °F 20.4 °F 6.1 °F 38% 30.12 in 10.0 mi WSW 9.2 mph - N/A   Overcast
6:51 AM 28.9 °F 19.8 °F 8.1 °F 41% 30.12 in 10.0 mi WSW 10.4 mph - N/A   Overcast
7:51 AM 30.0 °F 23.2 °F 8.1 °F 40% 30.12 in 10.0 mi West 6.9 mph - N/A   Overcast
8:51 AM 30.0 °F 21.1 °F 8.1 °F 40% 30.14 in 10.0 mi West 10.4 mph - N/A   Overcast
9:51 AM 32.0 °F 23.0 °F 8.1 °F 37% 30.16 in 10.0 mi West 11.5 mph - N/A   Overcast
10:51 AM 33.1 °F 24.9 °F 8.1 °F 35% 30.15 in 10.0 mi West 10.4 mph - N/A   Overcast
11:51 AM 34.0 °F 26.6 °F 8.1 °F 34% 30.13 in 10.0 mi West 9.2 mph - N/A   Overcast
12:51 PM 35.1 °F 27.9 °F 10.0 °F 35% 30.12 in 10.0 mi West 9.2 mph - N/A   Mostly Cloudy
1:51 PM 37.0 °F 29.8 °F 10.9 °F 34% 30.13 in 10.0 mi West 10.4 mph - N/A   Mostly Cloudy
2:51 PM 37.9 °F 32.7 °F 10.9 °F 33% 30.12 in 10.0 mi WNW 6.9 mph - N/A   Mostly Cloudy
3:51 PM 39.0 °F 34.0 °F 14.0 °F 36% 30.11 in 10.0 mi NW 6.9 mph - N/A   Mostly Cloudy
4:51 PM 37.9 °F 35.5 °F 15.1 °F 39% 30.12 in 10.0 mi WNW 3.5 mph - N/A   Mostly Cloudy
5:51 PM 37.0 °F 33.3 °F 16.0 °F 42% 30.15 in 10.0 mi NW 4.6 mph - N/A   Mostly Cloudy
6:51 PM 37.9 °F - 12.9 °F 36% 30.19 in 10.0 mi Calm Calm - N/A   Mostly Cloudy
7:51 PM 39.0 °F - 12.0 °F 33% 30.19 in 10.0 mi Calm Calm - N/A   Mostly Cloudy
8:51 PM 37.9 °F - 12.0 °F 35% 30.21 in 10.0 mi Calm Calm - N/A   Mostly Cloudy
9:51 PM 37.9 °F - 12.9 °F 36% 30.22 in 10.0 mi Calm Calm - N/A   Overcast
10:51 PM 37.0 °F - 14.0 °F 39% 30.24 in 10.0 mi Calm Calm - N/A   Mostly Cloudy
11:51 PM 36.0 °F - 14.0 °F 41% 30.24 in 10.0 mi Calm Calm - N/A   Overcast